| time (UTC) | temp F | wind direction | speed knots | gust knots | rain 1hr in | rain 24hr in | rain mn in | humidity % | barometer mb |
| 20260509214535 | 85 | 134 | 2.6 | 4.3 | 0.00 | 0.00 | 0.00 | 52 | 1009.6 |
| 20260509213038 | 87 | 0 | 0.9 | 2.6 | 0.00 | 0.00 | 0.00 | 45 | 1009.7 |
| 20260509211534 | 88 | 5 | 0.9 | 2.6 | 0.00 | 0.00 | 0.00 | 42 | 1009.9 |
| 20260509210042 | 86 | 0 | 0.9 | 2.6 | 0.00 | 0.00 | 0.00 | 44 | 1010.1 |
| 20260509204539 | 87 | 129 | 0.0 | 1.7 | 0.00 | 0.00 | 0.00 | 43 | 1010.3 |
| 20260509203033 | 85 | 108 | 0.0 | 2.6 | 0.00 | 0.00 | 0.00 | 45 | 1010.4 |
| 20260509201538 | 84 | 143 | 1.7 | 3.5 | 0.00 | 0.00 | 0.00 | 45 | 1010.7 |
| 20260509200032 | 83 | 141 | 0.9 | 4.3 | 0.00 | 0.00 | 0.00 | 45 | 1010.7 |
| 20260509194538 | 83 | 131 | 1.7 | 2.6 | 0.00 | 0.00 | 0.00 | 49 | 1010.7 |
| 20260509193031 | 84 | 128 | 1.7 | 2.6 | 0.00 | 0.00 | 0.00 | 49 | 1010.8 |
| 20260509191530 | 84 | 16 | 0.9 | 3.5 | 0.00 | 0.00 | 0.00 | 49 | 1010.9 |
| 20260509190034 | 83 | 153 | 0.0 | 2.6 | 0.00 | 0.00 | 0.00 | 55 | 1010.9 |
| 20260509184543 | 82 | 0 | 0.9 | 2.6 | 0.00 | 0.00 | 0.00 | 59 | 1011.0 |
| 20260509183033 | 84 | 146 | 1.7 | 2.6 | 0.00 | 0.00 | 0.00 | 55 | 1011.0 |
| 20260509181532 | 83 | 0 | 0.9 | 3.5 | 0.00 | 0.00 | 0.00 | 55 | 1011.2 |
| 20260509180032 | 81 | 108 | 0.0 | 3.5 | 0.00 | 0.00 | 0.00 | 60 | 1011.2 |
| 20260509174536 | 79 | 124 | 1.7 | 3.5 | 0.00 | 0.00 | 0.00 | 63 | 1011.3 |
| 20260509173035 | 78 | 130 | 0.9 | 3.5 | 0.00 | 0.00 | 0.00 | 66 | 1011.2 |
| 20260509171535 | 78 | 1 | 0.0 | 2.6 | 0.00 | 0.00 | 0.00 | 66 | 1011.3 |
| 20260509170030 | 77 | 152 | 0.9 | 2.6 | 0.00 | 0.00 | 0.00 | 70 | 1011.3 |
| 20260509164530 | 76 | 0 | 0.0 | 2.6 | 0.00 | 0.00 | 0.00 | 68 | 1011.3 |
| 20260509163034 | 75 | 146 | 0.9 | 4.3 | 0.00 | 0.00 | 0.00 | 74 | 1011.3 |
| 20260509161533 | 75 | 19 | 0.9 | 2.6 | 0.00 | 0.00 | 0.00 | 70 | 1011.2 |
| 20260509160040 | 74 | 0 | 0.0 | 2.6 | 0.00 | 0.00 | 0.00 | 72 | 1011.1 |
| 20260509154535 | 73 | 278 | 0.9 | 3.5 | 0.00 | 0.00 | 0.00 | 73 | 1011.2 |
| 20260509153043 | 72 | 287 | 0.0 | 2.6 | 0.00 | 0.00 | 0.00 | 76 | 1011.0 |
| 20260509151533 | 71 | 217 | 0.0 | 1.7 | 0.00 | 0.00 | 0.00 | 76 | 1010.9 |
| 20260509150038 | 70 | 0 | 0.0 | 0.9 | 0.00 | 0.00 | 0.00 | 79 | 1011.1 |
| 20260509144549 | 70 | 231 | 0.9 | 2.6 | 0.00 | 0.00 | 0.00 | 80 | 1011.2 |
| 20260509143033 | 69 | 0 | 0.0 | 1.7 | 0.00 | 0.00 | 0.00 | 83 | 1011.3 |
| 20260509141539 | 68 | 229 | 0.0 | 2.6 | 0.00 | 0.00 | 0.00 | 86 | 1011.3 |
| 20260509140034 | 67 | 198 | 0.0 | 3.5 | 0.00 | 0.00 | 0.00 | 87 | 1011.2 |
| 20260509134553 | 66 | 149 | 0.9 | 2.6 | 0.00 | 0.00 | 0.00 | 90 | 1011.3 |
| 20260509133043 | 64 | 140 | 0.0 | 1.7 | 0.00 | 0.00 | 0.00 | 93 | 1011.3 |
| 20260509131537 | 62 | 142 | 0.9 | 0.9 | 0.00 | 0.00 | 0.00 | 95 | 1011.2 |
| 20260509130044 | 61 | 152 | 0.9 | 1.7 | 0.00 | 0.00 | 0.00 | 96 | 1011.1 |
| 20260509124536 | 60 | 0 | 0.0 | 0.9 | 0.00 | 0.00 | 0.00 | 96 | 1011.0 |
| 20260509123032 | 58 | 0 | 0.0 | 0.0 | 0.00 | 0.00 | 0.00 | 95 | 1010.8 |
| 20260509121543 | 57 | 0 | 0.0 | 0.0 | 0.00 | 0.00 | 0.00 | 95 | 1010.6 |
| 20260509120035 | 57 | 0 | 0.0 | 0.0 | 0.00 | 0.00 | 0.00 | 95 | 1010.4 |
| 20260509114538 | 57 | 0 | 0.0 | 0.0 | 0.00 | 0.00 | 0.00 | 95 | 1010.4 |
| 20260509113039 | 57 | 0 | 0.0 | 0.0 | 0.00 | 0.00 | 0.00 | 94 | 1010.1 |
| 20260509111531 | 57 | 0 | 0.0 | 0.0 | 0.00 | 0.00 | 0.00 | 94 | 1010.0 |
| 20260509110034 | 57 | 0 | 0.0 | 0.0 | 0.00 | 0.00 | 0.00 | 94 | 1009.9 |
| 20260509104543 | 57 | 0 | 0.0 | 0.9 | 0.00 | 0.00 | 0.00 | 94 | 1009.8 |
| 20260509103038 | 58 | 0 | 0.0 | 0.0 | 0.00 | 0.00 | 0.00 | 93 | 1009.8 |
| 20260509101556 | 58 | 0 | 0.0 | 0.0 | 0.00 | 0.00 | 0.00 | 93 | 1009.7 |
| 20260509100040 | 58 | 0 | 0.0 | 0.0 | 0.00 | 0.00 | 0.00 | 92 | 1009.8 |
| 20260509094539 | 59 | 0 | 0.0 | 0.9 | 0.00 | 0.00 | 0.00 | 92 | 1009.8 |
| 20260509093037 | 59 | 0 | 0.0 | 0.0 | 0.00 | 0.00 | 0.00 | 91 | 1009.7 |
| 20260509091541 | 60 | 0 | 0.0 | 0.0 | 0.00 | 0.00 | 0.00 | 91 | 1009.9 |
| 20260509090039 | 60 | 0 | 0.0 | 0.9 | 0.00 | 0.00 | 0.00 | 90 | 1009.9 |
| 20260509084537 | 61 | 335 | 0.0 | 0.9 | 0.00 | 0.00 | 0.00 | 90 | 1009.5 |
| 20260509083035 | 61 | 0 | 0.0 | 0.0 | 0.00 | 0.00 | 0.00 | 89 | 1009.1 |
| 20260509081541 | 62 | 0 | 0.0 | 0.0 | 0.00 | 0.00 | 0.00 | 88 | 1009.1 |
| 20260509080035 | 63 | 0 | 0.0 | 0.0 | 0.00 | 0.00 | 0.00 | 87 | 1009.5 |
| 20260509074544 | 63 | 0 | 0.0 | 1.7 | 0.00 | 0.00 | 0.00 | 87 | 1009.5 |
| 20260509073033 | 64 | 0 | 0.0 | 1.7 | 0.00 | 0.00 | 0.00 | 86 | 1009.4 |
| 20260509071532 | 64 | 248 | 0.9 | 2.6 | 0.00 | 0.00 | 0.00 | 86 | 1009.4 |
| 20260509070039 | 64 | 0 | 0.0 | 2.6 | 0.00 | 0.00 | 0.00 | 85 | 1009.4 |
| 20260509064542 | 65 | 239 | 0.0 | 2.6 | 0.00 | 0.00 | 0.00 | 84 | 1009.3 |
| 20260509063032 | 65 | 255 | 0.9 | 3.5 | 0.00 | 0.00 | 0.00 | 83 | 1009.1 |
| 20260509061535 | 65 | 246 | 1.7 | 2.6 | 0.00 | 0.00 | 0.00 | 83 | 1008.9 |
| 20260509060038 | 65 | 157 | 0.9 | 5.2 | 0.00 | 0.00 | 0.00 | 83 | 1008.8 |
| 20260509054544 | 65 | 177 | 2.6 | 5.2 | 0.00 | 0.00 | 0.00 | 84 | 1009.1 |
| 20260509053035 | 64 | 170 | 4.3 | 6.1 | 0.00 | 0.00 | 0.00 | 86 | 1009.2 |
| 20260509051533 | 63 | 219 | 0.9 | 2.6 | 0.00 | 0.00 | 0.00 | 87 | 1010.6 |
| 20260509050037 | 61 | 132 | 0.9 | 1.7 | 0.00 | 0.00 | 0.00 | 91 | 1010.8 |
| 20260509044532 | 60 | 0 | 0.0 | 0.0 | 0.00 | 0.00 | 0.00 | 91 | 1011.4 |
| 20260509043031 | 60 | 119 | 0.0 | 0.9 | 0.00 | 0.00 | 0.00 | 92 | 1011.2 |
| 20260509041552 | 60 | 0 | 0.0 | 0.0 | 0.00 | 0.00 | 0.00 | 91 | 1011.4 |
| 20260509040033 | 60 | 0 | 0.0 | 0.0 | 0.00 | 0.00 | 0.00 | 91 | 1011.8 |
| 20260509034534 | 60 | 0 | 0.0 | 1.7 | 0.00 | 0.00 | 0.00 | 91 | 1011.4 |
| 20260509033036 | 60 | 0 | 0.0 | 0.9 | 0.00 | 0.00 | 0.00 | 89 | 1011.9 |
| 20260509031536 | 60 | 106 | 0.0 | 0.9 | 0.00 | 0.00 | 0.00 | 88 | 1011.7 |
| 20260509030035 | 61 | 121 | 0.0 | 0.0 | 0.00 | 0.00 | 0.00 | 88 | 1010.9 |
| 20260509024537 | 61 | 121 | 0.0 | 0.9 | 0.00 | 0.00 | 0.00 | 85 | 1010.4 |
| 20260509023035 | 62 | 0 | 0.0 | 0.0 | 0.00 | 0.00 | 0.00 | 83 | 1010.1 |
| 20260509021536 | 62 | 0 | 0.0 | 0.0 | 0.00 | 0.00 | 0.00 | 80 | 1009.8 |
| 20260509020045 | 63 | 0 | 0.0 | 0.0 | 0.00 | 0.00 | 0.00 | 78 | 1009.9 |
| 20260509014539 | 64 | 0 | 0.0 | 0.0 | 0.00 | 0.00 | 0.00 | 75 | 1009.9 |
| 20260509013041 | 65 | 0 | 0.0 | 0.0 | 0.00 | 0.00 | 0.00 | 73 | 1009.8 |
| 20260509011537 | 67 | 0 | 0.0 | 0.0 | 0.00 | 0.00 | 0.00 | 71 | 1009.7 |
| 20260509010040 | 68 | 0 | 0.0 | 0.0 | 0.00 | 0.00 | 0.00 | 70 | 1009.6 |
| 20260509004535 | 70 | 0 | 0.0 | 1.7 | 0.00 | 0.00 | 0.00 | 67 | 1009.7 |
| 20260509003035 | 71 | 144 | 1.7 | 1.7 | 0.00 | 0.00 | 0.00 | 63 | 1009.7 |
| 20260509001533 | 73 | 149 | 0.9 | 2.6 | 0.00 | 0.00 | 0.00 | 59 | 1010.0 |
| 20260509000034 | 74 | 169 | 2.6 | 4.3 | 0.00 | 0.00 | 0.00 | 57 | 1010.0 |
| 20260508234533 | 74 | 170 | 1.7 | 4.3 | 0.00 | 0.00 | 0.00 | 58 | 1009.9 |
| 20260508233034 | 75 | 167 | 2.6 | 4.3 | 0.00 | 0.00 | 0.00 | 57 | 1010.0 |
| 20260508231537 | 75 | 153 | 3.5 | 5.2 | 0.00 | 0.00 | 0.00 | 55 | 1010.0 |
| 20260508230041 | 76 | 169 | 2.6 | 4.3 | 0.00 | 0.00 | 0.00 | 55 | 1009.9 |
| 20260508224535 | 77 | 235 | 1.7 | 3.5 | 0.00 | 0.00 | 0.00 | 54 | 1009.8 |
| 20260508223033 | 77 | 173 | 0.9 | 5.2 | 0.00 | 0.00 | 0.00 | 54 | 1009.8 |
| 20260508221535 | 76 | 176 | 2.6 | 6.1 | 0.00 | 0.00 | 0.00 | 55 | 1009.9 |
| 20260508220033 | 77 | 142 | 2.6 | 5.2 | 0.00 | 0.00 | 0.00 | 55 | 1010.0 |